| time (UTC) | temp F | wind direction | speed knots | gust knots | rain 1hr in | rain 24hr in | rain mn in | humidity % | barometer mb |
| 20260508173320 | 70 | 314 | 3.5 | 5.2 | 0.00 | 0.00 | 0.00 | 37 | 1021.3 |
| 20260508172740 | 70 | 9 | 2.6 | 7.8 | 0.00 | 0.00 | 0.00 | 42 | 1021.3 |
| 20260508172148 | 70 | 278 | 3.5 | 9.6 | 0.00 | 0.00 | 0.00 | 39 | 1021.3 |
| 20260508170941 | 70 | 267 | 4.3 | 7.8 | 0.00 | 0.00 | 0.00 | 43 | 1021.3 |
| 20260508170314 | 69 | 176 | 4.3 | 4.3 | 0.00 | 0.00 | 0.00 | 40 | 1021.6 |
| 20260508165709 | 69 | 154 | 0.9 | 8.7 | 0.00 | 0.00 | 0.00 | 40 | 1021.6 |
| 20260508165120 | 69 | 199 | 5.2 | 8.7 | 0.00 | 0.00 | 0.00 | 41 | 1022.0 |
| 20260508164533 | 69 | 256 | 7.8 | 7.8 | 0.00 | 0.00 | 0.00 | 41 | 1022.0 |
| 20260508163331 | 69 | 212 | 3.5 | 9.6 | 0.00 | 0.00 | 0.00 | 43 | 1022.0 |
| 20260508162723 | 69 | 183 | 5.2 | 5.2 | 0.00 | 0.00 | 0.00 | 44 | 1022.3 |
| 20260508162130 | 69 | 179 | 5.2 | 7.8 | 0.00 | 0.00 | 0.00 | 45 | 1022.3 |
| 20260508161515 | 68 | 155 | 7.8 | 7.8 | 0.00 | 0.00 | 0.00 | 45 | 1022.3 |
| 20260508160931 | 68 | 215 | 5.2 | 7.0 | 0.00 | 0.00 | 0.00 | 41 | 1022.6 |
| 20260508160338 | 68 | 163 | 2.6 | 6.1 | 0.00 | 0.00 | 0.00 | 40 | 1022.6 |
| 20260508155110 | 67 | 133 | 2.6 | 6.1 | 0.00 | 0.00 | 0.00 | 43 | 1023.0 |
| 20260508154521 | 68 | 243 | 2.6 | 3.5 | 0.00 | 0.00 | 0.00 | 45 | 1023.0 |
| 20260508153937 | 67 | 166 | 2.6 | 9.6 | 0.00 | 0.00 | 0.00 | 42 | 1023.0 |
| 20260508153342 | 66 | 313 | 5.2 | 7.8 | 0.00 | 0.00 | 0.00 | 44 | 1023.3 |
| 20260508152746 | 66 | 183 | 0.9 | 5.2 | 0.00 | 0.00 | 0.00 | 45 | 1023.3 |
| 20260508151536 | 65 | 135 | 6.1 | 6.1 | 0.00 | 0.00 | 0.00 | 44 | 1023.0 |
| 20260508150945 | 65 | 151 | 3.5 | 5.2 | 0.00 | 0.00 | 0.00 | 49 | 1023.0 |
| 20260508145746 | 64 | 144 | 2.6 | 5.2 | 0.00 | 0.00 | 0.00 | 48 | 1023.3 |
| 20260508145148 | 63 | 158 | 4.3 | 8.7 | 0.00 | 0.00 | 0.00 | 53 | 1023.3 |
| 20260508143942 | 62 | 156 | 5.2 | 6.1 | 0.00 | 0.00 | 0.00 | 50 | 1023.3 |
| 20260508142727 | 62 | 191 | 1.7 | 2.6 | 0.00 | 0.00 | 0.00 | 54 | 1023.3 |
| 20260508142149 | 60 | 145 | 5.2 | 5.2 | 0.00 | 0.00 | 0.00 | 53 | 1023.3 |
| 20260508141518 | 60 | 164 | 4.3 | 6.1 | 0.00 | 0.00 | 0.00 | 54 | 1023.3 |
| 20260508140936 | 59 | 179 | 3.5 | 5.2 | 0.00 | 0.00 | 0.00 | 57 | 1023.3 |
| 20260508135748 | 58 | 174 | 3.5 | 3.5 | 0.00 | 0.00 | 0.00 | 62 | 1023.3 |
| 20260508135146 | 58 | 152 | 2.6 | 6.1 | 0.00 | 0.00 | 0.00 | 59 | 1023.3 |
| 20260508134522 | 57 | 180 | 2.6 | 6.1 | 0.00 | 0.00 | 0.00 | 63 | 1023.3 |
| 20260508133916 | 56 | 167 | 1.7 | 6.1 | 0.00 | 0.00 | 0.00 | 63 | 1023.3 |
| 20260508133312 | 55 | 157 | 1.7 | 5.2 | 0.00 | 0.00 | 0.00 | 66 | 1023.3 |
| 20260508132726 | 55 | 158 | 2.6 | 5.2 | 0.00 | 0.00 | 0.00 | 66 | 1023.3 |
| 20260508132122 | 54 | 151 | 0.9 | 2.6 | 0.00 | 0.00 | 0.00 | 68 | 1023.7 |
| 20260508130308 | 51 | 155 | 1.7 | 5.2 | 0.00 | 0.00 | 0.00 | 74 | 1023.7 |
| 20260508125126 | 49 | 194 | 2.6 | 4.3 | 0.00 | 0.00 | 0.00 | 77 | 1023.7 |
| 20260508123936 | 48 | 145 | 1.7 | 2.6 | 0.00 | 0.00 | 0.00 | 80 | 1023.7 |
| 20260508123350 | 47 | 176 | 0.9 | 3.5 | 0.00 | 0.00 | 0.00 | 81 | 1023.7 |
| 20260508122731 | 46 | 173 | 3.5 | 3.5 | 0.00 | 0.00 | 0.00 | 82 | 1023.7 |
| 20260508122120 | 45 | 171 | 1.7 | 3.5 | 0.00 | 0.00 | 0.00 | 82 | 1023.7 |
| 20260508121538 | 45 | 153 | 1.7 | 3.5 | 0.00 | 0.00 | 0.00 | 85 | 1023.7 |
| 20260508120920 | 44 | 174 | 0.0 | 0.0 | 0.00 | 0.00 | 0.00 | 86 | 1023.7 |
| 20260508115710 | 42 | 158 | 0.0 | 0.0 | 0.00 | 0.00 | 0.00 | 92 | 1023.7 |
| 20260508115148 | 41 | 148 | 0.0 | 0.0 | 0.00 | 0.00 | 0.00 | 96 | 1023.7 |
| 20260508114519 | 40 | 169 | 0.0 | 0.0 | 0.00 | 0.00 | 0.00 | 97 | 1023.3 |
| 20260508113930 | 38 | 169 | 0.0 | 0.0 | 0.00 | 0.00 | 0.00 | 98 | 1023.3 |
| 20260508113316 | 37 | 161 | 0.0 | 0.0 | 0.00 | 0.00 | 0.00 | 98 | 1023.3 |
| 20260508112719 | 37 | 159 | 0.0 | 0.0 | 0.00 | 0.00 | 0.00 | 98 | 1023.3 |
| 20260508112143 | 36 | 172 | 0.0 | 0.0 | 0.00 | 0.00 | 0.00 | 98 | 1023.7 |
| 20260508111542 | 36 | 164 | 0.0 | 0.0 | 0.00 | 0.00 | 0.00 | 98 | 1023.3 |
| 20260508110922 | 36 | 165 | 0.0 | 0.0 | 0.00 | 0.00 | 0.00 | 97 | 1023.3 |
| 20260508110326 | 36 | 165 | 0.0 | 0.0 | 0.00 | 0.00 | 0.00 | 97 | 1023.3 |
| 20260508105142 | 35 | 166 | 0.0 | 0.0 | 0.00 | 0.00 | 0.00 | 97 | 1023.3 |
| 20260508103936 | 35 | 167 | 0.0 | 0.0 | 0.00 | 0.00 | 0.00 | 97 | 1023.3 |
| 20260508103338 | 35 | 167 | 0.0 | 0.0 | 0.00 | 0.00 | 0.00 | 97 | 1023.0 |
| 20260508102715 | 35 | 159 | 0.0 | 0.0 | 0.00 | 0.00 | 0.00 | 97 | 1023.0 |
| 20260508102115 | 35 | 159 | 0.0 | 0.0 | 0.00 | 0.00 | 0.00 | 97 | 1023.0 |
| 20260508101512 | 35 | 172 | 0.0 | 0.0 | 0.00 | 0.00 | 0.00 | 97 | 1023.0 |
| 20260508100938 | 35 | 179 | 0.0 | 0.0 | 0.00 | 0.00 | 0.00 | 97 | 1023.0 |
| 20260508100331 | 35 | 165 | 0.0 | 0.0 | 0.00 | 0.00 | 0.00 | 97 | 1023.0 |
| 20260508095748 | 35 | 166 | 0.0 | 0.0 | 0.00 | 0.00 | 0.00 | 97 | 1023.0 |
| 20260508095130 | 36 | 162 | 0.0 | 0.0 | 0.00 | 0.00 | 0.00 | 97 | 1022.6 |
| 20260508094522 | 36 | 168 | 0.0 | 0.0 | 0.00 | 0.00 | 0.00 | 97 | 1022.6 |
| 20260508093943 | 36 | 169 | 0.0 | 0.0 | 0.00 | 0.00 | 0.00 | 97 | 1022.6 |
| 20260508092722 | 36 | 170 | 0.0 | 0.0 | 0.00 | 0.00 | 0.00 | 97 | 1023.0 |
| 20260508092142 | 36 | 166 | 0.0 | 0.0 | 0.00 | 0.00 | 0.00 | 97 | 1023.0 |
| 20260508091528 | 36 | 197 | 0.0 | 0.0 | 0.00 | 0.00 | 0.00 | 97 | 1023.0 |
| 20260508090932 | 36 | 205 | 0.0 | 0.0 | 0.00 | 0.00 | 0.00 | 97 | 1023.0 |
| 20260508085139 | 36 | 168 | 0.0 | 0.0 | 0.00 | 0.00 | 0.00 | 96 | 1022.6 |
| 20260508084547 | 36 | 163 | 0.0 | 0.0 | 0.00 | 0.00 | 0.00 | 96 | 1022.6 |
| 20260508083912 | 36 | 163 | 0.0 | 0.0 | 0.00 | 0.00 | 0.00 | 96 | 1022.6 |
| 20260508083313 | 36 | 167 | 0.0 | 0.0 | 0.00 | 0.00 | 0.00 | 96 | 1022.6 |
| 20260508082735 | 36 | 171 | 0.0 | 0.0 | 0.00 | 0.00 | 0.00 | 96 | 1022.6 |
| 20260508082150 | 37 | 163 | 0.0 | 0.0 | 0.00 | 0.00 | 0.00 | 96 | 1022.6 |
| 20260508081537 | 37 | 163 | 0.0 | 0.0 | 0.00 | 0.00 | 0.00 | 96 | 1022.3 |
| 20260508080328 | 37 | 168 | 0.0 | 0.0 | 0.00 | 0.00 | 0.00 | 96 | 1022.6 |
| 20260508075731 | 37 | 176 | 0.0 | 0.0 | 0.00 | 0.00 | 0.00 | 96 | 1022.6 |
| 20260508075120 | 37 | 171 | 0.0 | 0.0 | 0.00 | 0.00 | 0.00 | 96 | 1022.6 |
| 20260508074529 | 37 | 167 | 0.0 | 0.0 | 0.00 | 0.00 | 0.00 | 96 | 1022.6 |
| 20260508073327 | 37 | 166 | 0.0 | 0.0 | 0.00 | 0.00 | 0.00 | 96 | 1022.6 |
| 20260508072733 | 37 | 170 | 0.0 | 0.0 | 0.00 | 0.00 | 0.00 | 95 | 1022.6 |
| 20260508072115 | 38 | 170 | 0.0 | 0.0 | 0.00 | 0.00 | 0.00 | 95 | 1022.3 |
| 20260508071537 | 38 | 169 | 0.0 | 0.0 | 0.00 | 0.00 | 0.00 | 95 | 1022.6 |
| 20260508070951 | 38 | 178 | 0.0 | 0.0 | 0.00 | 0.00 | 0.00 | 95 | 1022.6 |
| 20260508070338 | 38 | 167 | 0.0 | 0.0 | 0.00 | 0.00 | 0.00 | 95 | 1022.6 |
| 20260508065738 | 38 | 159 | 0.0 | 0.0 | 0.00 | 0.00 | 0.00 | 95 | 1022.6 |
| 20260508065133 | 38 | 163 | 0.0 | 0.0 | 0.00 | 0.00 | 0.00 | 95 | 1022.6 |
| 20260508064520 | 38 | 174 | 0.0 | 0.0 | 0.00 | 0.00 | 0.00 | 94 | 1022.3 |
| 20260508063925 | 39 | 188 | 0.0 | 0.0 | 0.00 | 0.00 | 0.00 | 94 | 1022.3 |
| 20260508063318 | 39 | 184 | 0.0 | 0.0 | 0.00 | 0.00 | 0.00 | 94 | 1022.6 |
| 20260508062742 | 39 | 155 | 0.0 | 0.0 | 0.00 | 0.00 | 0.00 | 94 | 1022.6 |
| 20260508062146 | 38 | 219 | 0.0 | 0.0 | 0.00 | 0.00 | 0.00 | 93 | 1022.6 |
| 20260508061530 | 38 | 191 | 0.0 | 0.0 | 0.00 | 0.00 | 0.00 | 93 | 1022.6 |
| 20260508060909 | 39 | 162 | 0.0 | 0.0 | 0.00 | 0.00 | 0.00 | 93 | 1022.6 |
| 20260508060341 | 39 | 170 | 0.0 | 0.0 | 0.00 | 0.00 | 0.00 | 93 | 1022.6 |
| 20260508055751 | 39 | 172 | 0.0 | 0.0 | 0.00 | 0.00 | 0.00 | 92 | 1022.6 |
| 20260508055141 | 39 | 176 | 0.0 | 0.0 | 0.00 | 0.00 | 0.00 | 92 | 1022.6 |
| 20260508054544 | 39 | 171 | 0.0 | 0.0 | 0.00 | 0.00 | 0.00 | 92 | 1022.6 |
| 20260508052738 | 40 | 180 | 0.0 | 0.0 | 0.00 | 0.00 | 0.00 | 91 | 1022.6 |
| 20260508052132 | 40 | 171 | 0.0 | 0.0 | 0.00 | 0.00 | 0.00 | 91 | 1022.6 |
| 20260508051526 | 40 | 175 | 0.0 | 0.0 | 0.00 | 0.00 | 0.00 | 91 | 1022.6 |
| 20260508050945 | 40 | 172 | 0.0 | 0.0 | 0.00 | 0.00 | 0.00 | 91 | 1022.6 |
| 20260508050309 | 40 | 174 | 0.0 | 0.0 | 0.00 | 0.00 | 0.00 | 90 | 1022.6 |
| 20260508045724 | 40 | 167 | 0.0 | 0.0 | 0.00 | 0.00 | 0.00 | 90 | 1022.3 |
| 20260508045128 | 40 | 199 | 0.0 | 0.0 | 0.00 | 0.00 | 0.00 | 89 | 1022.6 |
| 20260508044542 | 41 | 176 | 0.0 | 0.0 | 0.00 | 0.00 | 0.00 | 89 | 1022.3 |
| 20260508043936 | 41 | 186 | 0.0 | 0.0 | 0.00 | 0.00 | 0.00 | 88 | 1022.6 |
| 20260508043347 | 41 | 163 | 0.0 | 0.0 | 0.00 | 0.00 | 0.00 | 88 | 1022.6 |
| 20260508042723 | 41 | 164 | 0.0 | 0.0 | 0.00 | 0.00 | 0.00 | 87 | 1022.6 |
| 20260508042141 | 42 | 165 | 0.0 | 0.0 | 0.00 | 0.00 | 0.00 | 87 | 1022.6 |
| 20260508041532 | 42 | 173 | 0.0 | 0.0 | 0.00 | 0.00 | 0.00 | 87 | 1022.6 |
| 20260508040318 | 42 | 163 | 0.0 | 0.0 | 0.00 | 0.00 | 0.00 | 86 | 1022.6 |
| 20260508035120 | 42 | 183 | 0.0 | 0.0 | 0.00 | 0.00 | 0.00 | 85 | 1022.6 |
| 20260508034526 | 43 | 202 | 0.0 | 0.0 | 0.00 | 0.00 | 0.00 | 84 | 1022.6 |
| 20260508033916 | 43 | 165 | 0.0 | 0.0 | 0.00 | 0.00 | 0.00 | 83 | 1022.6 |
| 20260508033321 | 43 | 174 | 0.0 | 0.0 | 0.00 | 0.00 | 0.00 | 83 | 1022.6 |
| 20260508032734 | 43 | 173 | 0.0 | 0.0 | 0.00 | 0.00 | 0.00 | 82 | 1022.6 |
| 20260508032147 | 44 | 172 | 0.0 | 0.0 | 0.00 | 0.00 | 0.00 | 82 | 1022.6 |
| 20260508031526 | 44 | 171 | 0.0 | 0.0 | 0.00 | 0.00 | 0.00 | 81 | 1022.6 |
| 20260508030931 | 44 | 176 | 0.0 | 0.0 | 0.00 | 0.00 | 0.00 | 80 | 1022.6 |
| 20260508030311 | 44 | 169 | 0.0 | 0.0 | 0.00 | 0.00 | 0.00 | 79 | 1022.6 |
| 20260508025719 | 45 | 174 | 0.0 | 0.0 | 0.00 | 0.00 | 0.00 | 79 | 1022.6 |
| 20260508025114 | 45 | 179 | 0.0 | 0.0 | 0.00 | 0.00 | 0.00 | 78 | 1022.3 |
| 20260508024525 | 45 | 174 | 0.0 | 0.0 | 0.00 | 0.00 | 0.00 | 77 | 1022.3 |
| 20260508023946 | 45 | 167 | 0.0 | 0.0 | 0.00 | 0.00 | 0.00 | 77 | 1022.3 |
| 20260508023341 | 46 | 180 | 0.0 | 0.0 | 0.00 | 0.00 | 0.00 | 76 | 1022.3 |
| 20260508022723 | 46 | 172 | 0.0 | 0.0 | 0.00 | 0.00 | 0.00 | 75 | 1022.3 |
| 20260508021515 | 47 | 164 | 0.0 | 0.0 | 0.00 | 0.00 | 0.00 | 72 | 1022.3 |
| 20260508020945 | 48 | 163 | 0.0 | 0.0 | 0.00 | 0.00 | 0.00 | 72 | 1022.0 |
| 20260508020349 | 48 | 162 | 0.0 | 0.0 | 0.00 | 0.00 | 0.00 | 70 | 1022.0 |
| 20260508015738 | 48 | 168 | 0.0 | 0.0 | 0.00 | 0.00 | 0.00 | 68 | 1022.0 |
| 20260508015145 | 49 | 161 | 0.0 | 0.0 | 0.00 | 0.00 | 0.00 | 68 | 1022.0 |
| 20260508014517 | 49 | 46 | 0.0 | 0.0 | 0.00 | 0.00 | 0.00 | 69 | 1021.6 |
| 20260508012725 | 49 | 284 | 1.7 | 2.6 | 0.00 | 0.00 | 0.00 | 72 | 1021.3 |
| 20260508011528 | 50 | 237 | 0.0 | 0.0 | 0.00 | 0.00 | 0.00 | 69 | 1021.3 |
| 20260508010935 | 50 | 210 | 1.7 | 1.7 | 0.00 | 0.00 | 0.00 | 68 | 1021.3 |
| 20260508010349 | 50 | 228 | 1.7 | 2.6 | 0.00 | 0.00 | 0.00 | 69 | 1020.9 |
| 20260508005736 | 51 | 291 | 1.7 | 2.6 | 0.00 | 0.00 | 0.00 | 67 | 1020.9 |
| 20260508003908 | 52 | 210 | 1.7 | 2.6 | 0.00 | 0.00 | 0.00 | 69 | 1020.9 |
| 20260508003340 | 52 | 195 | 0.0 | 2.6 | 0.00 | 0.00 | 0.00 | 66 | 1020.9 |
| 20260508002734 | 52 | 293 | 1.7 | 2.6 | 0.00 | 0.00 | 0.00 | 69 | 1020.9 |
| 20260508002110 | 53 | 299 | 1.7 | 2.6 | 0.00 | 0.00 | 0.00 | 67 | 1020.9 |
| 20260508001532 | 53 | 317 | 1.7 | 1.7 | 0.00 | 0.00 | 0.00 | 66 | 1020.6 |
| 20260508000949 | 54 | 222 | 0.9 | 0.9 | 0.00 | 0.00 | 0.00 | 64 | 1020.6 |
| 20260508000335 | 54 | 336 | 1.7 | 2.6 | 0.00 | 0.00 | 0.00 | 62 | 1020.6 |
| 20260507235747 | 55 | 158 | 0.0 | 2.6 | 0.00 | 0.00 | 0.00 | 58 | 1020.6 |
| 20260507235119 | 56 | 268 | 1.7 | 1.7 | 0.00 | 0.00 | 0.00 | 63 | 1020.6 |
| 20260507234551 | 57 | 149 | 0.0 | 1.7 | 0.00 | 0.00 | 0.00 | 59 | 1020.3 |
| 20260507233938 | 58 | 128 | 0.0 | 0.0 | 0.00 | 0.00 | 0.00 | 52 | 1020.3 |
| 20260507233347 | 58 | 115 | 1.7 | 4.3 | 0.00 | 0.00 | 0.00 | 53 | 1020.3 |
| 20260507231535 | 60 | 148 | 2.6 | 2.6 | 0.00 | 0.00 | 0.00 | 41 | 1020.3 |
| 20260507225744 | 61 | 166 | 2.6 | 2.6 | 0.00 | 0.00 | 0.00 | 38 | 1019.9 |
| 20260507225120 | 61 | 151 | 1.7 | 2.6 | 0.00 | 0.00 | 0.00 | 41 | 1020.3 |
| 20260507224527 | 62 | 194 | 0.9 | 0.9 | 0.00 | 0.00 | 0.00 | 38 | 1020.3 |
| 20260507223918 | 62 | 149 | 1.7 | 3.5 | 0.00 | 0.00 | 0.00 | 38 | 1020.3 |
| 20260507223338 | 62 | 172 | 2.6 | 3.5 | 0.00 | 0.00 | 0.00 | 40 | 1020.3 |
| 20260507222719 | 62 | 151 | 2.6 | 2.6 | 0.00 | 0.00 | 0.00 | 35 | 1020.3 |
| 20260507221516 | 63 | 203 | 4.3 | 4.3 | 0.00 | 0.00 | 0.00 | 35 | 1019.9 |
| 20260507220312 | 64 | 174 | 3.5 | 3.5 | 0.00 | 0.00 | 0.00 | 37 | 1019.9 |
| 20260507215738 | 64 | 320 | 5.2 | 5.2 | 0.00 | 0.00 | 0.00 | 37 | 1019.9 |
| 20260507215144 | 64 | 149 | 1.7 | 3.5 | 0.00 | 0.00 | 0.00 | 40 | 1019.9 |
| 20260507213944 | 64 | 167 | 0.9 | 3.5 | 0.00 | 0.00 | 0.00 | 37 | 1019.6 |
| 20260507212737 | 64 | 60 | 3.5 | 7.8 | 0.00 | 0.00 | 0.00 | 37 | 1019.6 |
| 20260507211532 | 66 | 117 | 3.5 | 5.2 | 0.00 | 0.00 | 0.00 | 37 | 1019.6 |
| 20260507210928 | 65 | 125 | 1.7 | 1.7 | 0.00 | 0.00 | 0.00 | 39 | 1019.3 |
| 20260507210344 | 64 | 240 | 5.2 | 8.7 | 0.00 | 0.00 | 0.00 | 35 | 1019.3 |
| 20260507204547 | 65 | 143 | 1.7 | 6.1 | 0.00 | 0.00 | 0.00 | 40 | 1019.3 |
| 20260507202737 | 64 | 161 | 1.7 | 7.0 | 0.00 | 0.00 | 0.00 | 41 | 1019.3 |
| 20260507202152 | 65 | 150 | 1.7 | 3.5 | 0.00 | 0.00 | 0.00 | 37 | 1019.3 |
| 20260507201538 | 66 | 214 | 4.3 | 5.2 | 0.00 | 0.00 | 0.00 | 40 | 1019.3 |
| 20260507200938 | 65 | 189 | 1.7 | 2.6 | 0.00 | 0.00 | 0.00 | 42 | 1019.3 |
| 20260507195752 | 65 | 127 | 2.6 | 4.3 | 0.00 | 0.00 | 0.00 | 37 | 1019.3 |
| 20260507195151 | 64 | 14 | 4.3 | 7.8 | 0.00 | 0.00 | 0.00 | 37 | 1019.3 |
| 20260507194514 | 64 | 156 | 2.6 | 7.0 | 0.00 | 0.00 | 0.00 | 39 | 1019.3 |
| 20260507193951 | 67 | 200 | 2.6 | 3.5 | 0.00 | 0.00 | 0.00 | 41 | 1019.3 |
| 20260507192732 | 64 | 209 | 4.3 | 7.8 | 0.00 | 0.00 | 0.00 | 40 | 1019.6 |
| 20260507192146 | 66 | 120 | 3.5 | 5.2 | 0.00 | 0.00 | 0.00 | 37 | 1019.6 |
| 20260507191535 | 64 | 196 | 1.7 | 4.3 | 0.00 | 0.00 | 0.00 | 38 | 1019.6 |
| 20260507190936 | 65 | 204 | 4.3 | 4.3 | 0.00 | 0.00 | 0.00 | 43 | 1019.6 |
| 20260507185724 | 65 | 199 | 3.5 | 7.8 | 0.00 | 0.00 | 0.00 | 44 | 1019.6 |
| 20260507185150 | 65 | 158 | 1.7 | 6.1 | 0.00 | 0.00 | 0.00 | 42 | 1019.9 |
| 20260507184549 | 64 | 181 | 1.7 | 7.8 | 0.00 | 0.00 | 0.00 | 56 | 1019.9 |
| 20260507183951 | 64 | 185 | 2.6 | 3.5 | 0.00 | 0.00 | 0.00 | 44 | 1019.9 |
| 20260507183308 | 63 | 198 | 5.2 | 5.2 | 0.00 | 0.00 | 0.00 | 45 | 1019.9 |
| 20260507182714 | 63 | 190 | 2.6 | 7.0 | 0.00 | 0.00 | 0.00 | 46 | 1019.9 |
| 20260507182150 | 66 | 199 | 2.6 | 6.1 | 0.00 | 0.00 | 0.00 | 43 | 1020.3 |
| 20260507181510 | 64 | 174 | 2.6 | 5.2 | 0.00 | 0.00 | 0.00 | 44 | 1019.9 |
| 20260507180927 | 62 | 142 | 3.5 | 3.5 | 0.00 | 0.00 | 0.00 | 50 | 1020.3 |
| 20260507180324 | 63 | 171 | 1.7 | 3.5 | 0.00 | 0.00 | 0.00 | 52 | 1020.3 |
| 20260507174520 | 64 | 183 | 0.0 | 3.5 | 0.00 | 0.00 | 0.00 | 47 | 1020.3 |
| 20260507173945 | 65 | 130 | 4.3 | 4.3 | 0.00 | 0.00 | 0.00 | 46 | 1020.3 |